Time,TemperatureF,DewpointF,PressureIn,WindDirection,WindDirectionDegrees,WindSpeedMPH,WindSpeedGustMPH,Humidity,HourlyPrecipIn,Conditions,Clouds,dailyrainin,SoftwareType,DateUTC
2013-09-25 00:04:00,74.0,72.0,29.83,SW,225,0.0,-999.0,93,-99.99,,,-99.99,,2013-09-25 04:04:00,
2013-09-25 00:14:00,74.0,72.0,29.83,SW,225,0.0,-999.0,93,-99.99,,,-99.99,,2013-09-25 04:14:00,
2013-09-25 00:24:00,74.0,72.0,29.83,SW,223,0.0,-999.0,93,-99.99,,,-99.99,,2013-09-25 04:24:00,
2013-09-25 00:34:00,74.0,72.0,29.83,SW,223,0.0,-999.0,93,-99.99,,,-99.99,,2013-09-25 04:34:00,
2013-09-25 00:54:00,74.0,72.0,29.83,SW,223,0.0,-999.0,94,-99.99,,,-99.99,,2013-09-25 04:54:00,
2013-09-25 01:03:00,74.0,72.0,29.83,SW,223,0.0,-999.0,94,-99.99,,,-99.99,,2013-09-25 05:03:00,
2013-09-25 01:23:00,74.0,72.0,29.83,SW,223,0.0,-999.0,94,-99.99,,,-99.99,,2013-09-25 05:23:00,
2013-09-25 01:34:00,74.0,72.0,29.83,SW,223,0.0,-999.0,94,-99.99,,,-99.99,,2013-09-25 05:34:00,
2013-09-25 01:53:00,74.0,72.0,29.82,SW,223,0.0,-999.0,94,-99.99,,,-99.99,,2013-09-25 05:53:00,
2013-09-25 02:02:00,74.0,72.0,29.82,SW,223,0.0,-999.0,94,-99.99,,,-99.99,,2013-09-25 06:02:00,
2013-09-25 02:23:00,74.0,72.0,29.81,SW,224,0.0,-999.0,94,-99.99,,,-99.99,,2013-09-25 06:23:00,
2013-09-25 02:32:00,74.0,72.0,29.81,SW,224,0.0,-999.0,94,-99.99,,,-99.99,,2013-09-25 06:32:00,
2013-09-25 02:33:00,75.0,73.0,29.81,SW,224,0.0,-999.0,94,-99.99,,,-99.99,,2013-09-25 06:33:00,
2013-09-25 02:52:00,75.0,73.0,29.81,SW,224,0.0,-999.0,94,-99.99,,,-99.99,,2013-09-25 06:52:00,
2013-09-25 03:01:00,75.0,73.0,29.81,SW,224,0.0,-999.0,94,-99.99,,,-99.99,,2013-09-25 07:01:00,
2013-09-25 03:12:00,75.0,73.0,29.81,SW,224,0.0,-999.0,94,-99.99,,,-99.99,,2013-09-25 07:12:00,
2013-09-25 03:22:00,75.0,73.0,29.81,SW,224,0.0,-999.0,94,-99.99,,,-99.99,,2013-09-25 07:22:00,
2013-09-25 09:52:00,73.0,71.0,29.87,West,271,4.0,-999.0,92,-99.99,,,-99.99,,2013-09-25 13:52:00,
2013-09-25 10:22:00,72.0,70.0,29.87,West,265,2.0,-999.0,92,-99.99,,,-99.99,,2013-09-25 14:22:00,
2013-09-25 10:32:00,72.0,70.0,29.87,West,265,2.0,-999.0,92,-99.99,,,-99.99,,2013-09-25 14:32:00,
2013-09-25 10:52:00,72.0,70.0,29.85,West,269,0.0,-999.0,93,-99.99,,,-99.99,,2013-09-25 14:52:00,
2013-09-25 11:02:00,72.0,70.0,29.85,West,269,0.0,-999.0,93,-99.99,,,-99.99,,2013-09-25 15:02:00,
2013-09-25 11:22:00,74.0,72.0,29.83,SW,230,2.0,-999.0,92,-99.99,,,-99.99,,2013-09-25 15:22:00,
2013-09-25 11:33:00,74.0,72.0,29.83,SW,230,2.0,-999.0,92,-99.99,,,-99.99,,2013-09-25 15:33:00,
2013-09-25 11:54:00,73.0,70.0,29.83,WSW,248,4.0,-999.0,91,-99.99,,,-99.99,,2013-09-25 15:54:00,
2013-09-25 12:03:00,73.0,70.0,29.83,WSW,248,4.0,-999.0,91,-99.99,,,-99.99,,2013-09-25 16:03:00,
2013-09-25 12:23:00,74.0,71.0,29.82,WSW,250,2.0,-999.0,90,-99.99,,,-99.99,,2013-09-25 16:23:00,
2013-09-25 12:32:00,74.0,71.0,29.82,WSW,250,2.0,-999.0,90,-99.99,,,-99.99,,2013-09-25 16:32:00,
2013-09-25 12:53:00,74.0,71.0,29.82,WSW,250,2.0,-999.0,90,-99.99,,,-99.99,,2013-09-25 16:53:00,
2013-09-25 13:23:00,73.0,70.0,29.82,WSW,244,4.0,-999.0,91,-99.99,,,-99.99,,2013-09-25 17:23:00,
2013-09-25 13:34:00,73.0,70.0,29.82,WSW,244,4.0,-999.0,91,-99.99,,,-99.99,,2013-09-25 17:34:00,
2013-09-25 13:52:00,74.0,71.0,29.82,West,267,3.0,-999.0,89,-99.99,,,-99.99,,2013-09-25 17:52:00,
2013-09-25 14:02:00,74.0,71.0,29.82,West,267,3.0,-999.0,89,-99.99,,,-99.99,,2013-09-25 18:02:00,
2013-09-25 14:22:00,75.0,71.0,29.79,WNW,288,2.0,-999.0,87,-99.99,,,-99.99,,2013-09-25 18:22:00,
2013-09-25 14:32:00,75.0,71.0,29.79,WNW,288,2.0,-999.0,87,-99.99,,,-99.99,,2013-09-25 18:32:00,
2013-09-25 14:52:00,76.0,72.0,29.77,West,263,1.0,-999.0,86,-99.99,,,-99.99,,2013-09-25 18:52:00,
2013-09-25 15:02:00,76.0,72.0,29.77,West,263,1.0,-999.0,86,-99.99,,,-99.99,,2013-09-25 19:02:00,
2013-09-25 15:22:00,79.0,73.0,29.77,West,271,1.0,-999.0,81,-99.99,,,-99.99,,2013-09-25 19:22:00,
2013-09-25 15:32:00,79.0,73.0,29.77,West,271,1.0,-999.0,81,-99.99,,,-99.99,,2013-09-25 19:32:00,
2013-09-25 15:53:00,80.0,74.0,29.78,West,269,2.0,-999.0,81,-99.99,,,-99.99,,2013-09-25 19:53:00,
2013-09-25 16:03:00,80.0,74.0,29.78,West,269,2.0,-999.0,81,-99.99,,,-99.99,,2013-09-25 20:03:00,
2013-09-25 16:22:00,82.0,74.0,29.78,WSW,258,2.0,-999.0,78,-99.99,,,-99.99,,2013-09-25 20:22:00,
2013-09-25 16:32:00,82.0,74.0,29.78,WSW,258,2.0,-999.0,78,-99.99,,,-99.99,,2013-09-25 20:32:00,
2013-09-25 16:52:00,82.0,73.0,29.78,West,273,2.0,-999.0,74,-99.99,,,-99.99,,2013-09-25 20:52:00,
2013-09-25 17:01:00,82.0,73.0,29.78,West,273,2.0,-999.0,74,-99.99,,,-99.99,,2013-09-25 21:01:00,
2013-09-25 17:22:00,82.0,73.0,29.78,WNW,288,2.0,-999.0,75,-99.99,,,-99.99,,2013-09-25 21:22:00,
2013-09-25 17:34:00,82.0,73.0,29.78,WNW,288,2.0,-999.0,75,-99.99,,,-99.99,,2013-09-25 21:34:00,
2013-09-25 17:55:00,81.0,73.0,29.78,West,268,2.0,-999.0,77,-99.99,,,-99.99,,2013-09-25 21:55:00,
2013-09-25 18:04:00,81.0,73.0,29.78,West,268,2.0,-999.0,77,-99.99,,,-99.99,,2013-09-25 22:04:00,
2013-09-25 18:23:00,81.0,74.0,29.78,WSW,250,1.0,-999.0,80,-99.99,,,-99.99,,2013-09-25 22:23:00,
2013-09-25 18:33:00,81.0,74.0,29.78,WSW,250,1.0,-999.0,80,-99.99,,,-99.99,,2013-09-25 22:33:00,
2013-09-25 18:53:00,80.0,74.0,29.78,WSW,247,0.0,-999.0,83,-99.99,,,-99.99,,2013-09-25 22:53:00,
2013-09-25 19:03:00,80.0,74.0,29.78,WSW,247,0.0,-999.0,83,-99.99,,,-99.99,,2013-09-25 23:03:00,
2013-09-25 19:23:00,79.0,74.0,29.78,WSW,245,0.0,-999.0,84,-99.99,,,-99.99,,2013-09-25 23:23:00,
2013-09-25 19:34:00,79.0,74.0,29.78,WSW,245,0.0,-999.0,84,-99.99,,,-99.99,,2013-09-25 23:34:00,
2013-09-25 19:53:00,78.0,74.0,29.78,WSW,243,0.0,-999.0,87,-99.99,,,-99.99,,2013-09-25 23:53:00,
2013-09-25 20:02:00,78.0,74.0,29.78,WSW,243,0.0,-999.0,87,-99.99,,,-99.99,,2013-09-26 00:02:00,
2013-09-25 20:22:00,77.0,73.0,29.80,WSW,243,0.0,-999.0,88,-99.99,,,-99.99,,2013-09-26 00:22:00,
2013-09-25 20:32:00,77.0,73.0,29.80,WSW,243,0.0,-999.0,88,-99.99,,,-99.99,,2013-09-26 00:32:00,
2013-09-25 20:52:00,76.0,73.0,29.80,WSW,242,0.0,-999.0,89,-99.99,,,-99.99,,2013-09-26 00:52:00,
2013-09-25 21:02:00,76.0,73.0,29.80,WSW,242,0.0,-999.0,89,-99.99,,,-99.99,,2013-09-26 01:02:00,
2013-09-25 21:23:00,75.0,72.0,29.80,WSW,242,0.0,-999.0,90,-99.99,,,-99.99,,2013-09-26 01:23:00,
2013-09-25 21:32:00,75.0,72.0,29.80,WSW,242,0.0,-999.0,90,-99.99,,,-99.99,,2013-09-26 01:32:00,
2013-09-25 21:52:00,75.0,72.0,29.80,WSW,242,0.0,-999.0,91,-99.99,,,-99.99,,2013-09-26 01:52:00,
2013-09-25 22:02:00,75.0,72.0,29.80,WSW,242,0.0,-999.0,91,-99.99,,,-99.99,,2013-09-26 02:02:00,
2013-09-25 22:22:00,75.0,72.0,29.80,WSW,241,0.0,-999.0,91,-99.99,,,-99.99,,2013-09-26 02:22:00,
2013-09-25 22:33:00,75.0,72.0,29.80,WSW,241,0.0,-999.0,91,-99.99,,,-99.99,,2013-09-26 02:33:00,
2013-09-25 22:42:00,75.0,72.0,29.80,WSW,241,0.0,-999.0,91,-99.99,,,-99.99,,2013-09-26 02:42:00,
2013-09-25 23:22:00,74.0,72.0,29.80,SW,222,0.0,-999.0,92,-99.99,,,-99.99,,2013-09-26 03:22:00,
2013-09-25 23:34:00,74.0,72.0,29.80,SW,222,0.0,-999.0,92,-99.99,,,-99.99,,2013-09-26 03:34:00,
2013-09-25 23:55:00,74.0,72.0,29.80,SW,223,0.0,-999.0,92,-99.99,,,-99.99,,2013-09-26 03:55:00,